Location: Gajan
(43.0218°N, 1.1244°E)
Time: 08:02:06
(UTC+00:00)

Cosmos 2297 Rocket - Pass Details

Date: 22 April 2021
Orbit: 838 x 844 km, 71.0° (Epoch: 07 May)

Event Time Altitude Azimuth Distance (km) Brightness Sun altitude
Rises 20:38:58 0° 213° (SSW) 3,379 5.3 -18.9°
Reaches altitude 10° 20:41:26 10° 217° (SW) 2,450 4.6 -19.2°
Maximum altitude 20:47:00 62° 298° (WNW) 945 2.7 -20.0°
Drops below altitude 10° 20:52:37 10° 19° (NNE) 2,469 4.9 -20.7°
Sets 20:55:06 0° 23° (NNE) 3,409 5.6 -21.1°
